Location: Bear Trap Landing
(45.2437°N, 67.7928°W)
Time: 08:10:15
(UTC+00:00)

X-37B - Visible Passes

Search period start: 06 March 2021 00:00
Search period end: 16 March 2021 00:00
Orbit: 383 x 391 km, 45.0° (Epoch: 27 February)

Date Brightness Start Highest point End Pass type
(mag) Time Alt. Az. Time Alt. Az. Time Alt. Az.
11 Mar 2.1 23:52:54 10° SSW 23:55:19 22° SSE 23:55:19 22° SSE visible
13 Mar 2.0 00:30:22 10° WSW 00:32:19 31° SW 00:32:19 31° SW visible
13 Mar 1.5 23:32:15 10° SW 23:35:13 35° SSE 23:36:53 20° ESE visible
14 Mar 3.5 01:08:28 10° W 01:09:11 15° W 01:09:11 15° W visible
15 Mar 0.5 00:10:08 10° WSW 00:13:20 70° S 00:13:39 63° ESE visible
15 Mar 1.0 23:11:53 10° WSW 23:15:00 52° SSE 23:18:03 11° E visible
